This is the latest recevied weather packets stored in our database for station/object N3WXO-1. If no packets are shown the sender has not sent any weather packets the latest 10 day(s).
| Time | Temp. | Humidity | Pressure | Rain* | Wind** | Luminosity | Snow |
|---|---|---|---|---|---|---|---|
| 1777902029 | 13.89° C | 53% | 1013.4 hPa | 0 mm | - | 181 W/m² | - |
| 1777901723 | 13.33° C | 58% | 1013.4 hPa | 0 mm | - | 582 W/m² | - |
| 1777901419 | 12.78° C | 57% | 1013.4 hPa | 0 mm | - | 582 W/m² | - |
| 1777901120 | 12.78° C | 59% | 1013.5 hPa | 0 mm | - | 325 W/m² | - |
| 1777900835 | 12.22° C | 59% | 1013.6 hPa | 0 mm | - | 204 W/m² | - |
| 1777900530 | 11.67° C | 61% | 1013.6 hPa | 0 mm | - | 290 W/m² | - |
| 1777900225 | 11.11° C | 67% | 1013.6 hPa | 0 mm | - | 204 W/m² | - |
| 1777899919 | 10.56° C | 67% | 1013.6 hPa | 0 mm | - | 234 W/m² | - |
| 1777899633 | 10° C | 68% | 1013.7 hPa | 0 mm | - | 178 W/m² | - |
| 1777899331 | 10° C | 69% | 1013.8 hPa | 0 mm | - | 174 W/m² | - |
| 1777899029 | 9.44° C | 71% | 1013.9 hPa | 0 mm | - | 192 W/m² | - |
| 1777898723 | 8.33° C | 74% | 1014 hPa | 0 mm | - | 186 W/m² | - |
| 1777898420 | 7.78° C | 75% | 1013.9 hPa | 0 mm | - | 155 W/m² | - |
| 1777898137 | 7.22° C | 77% | 1014.1 hPa | 0 mm | - | 102 W/m² | - |
| 1777897834 | 6.67° C | 80% | 1014.1 hPa | 0 mm | - | 77 W/m² | - |
| 1777897529 | 6.67° C | 83% | 1014.1 hPa | 0 mm | - | 56 W/m² | - |
| 1777897224 | 6.11° C | 85% | 1014.1 hPa | 0 mm | - | 69 W/m² | - |
| 1777896926 | 5.56° C | 86% | 1014.1 hPa | 0 mm | - | 105 W/m² | - |
| 1777896639 | 5.56° C | 87% | 1014.1 hPa | 0 mm | - | 63 W/m² | - |
| 1777896333 | 5° C | 87% | 1014.2 hPa | 0 mm | - | 120 W/m² | - |
| 1777896027 | 4.44° C | 88% | 1014.2 hPa | 0 mm | - | 88 W/m² | - |
| 1777895738 | 4.44° C | 89% | 1014.1 hPa | 0 mm | - | 39 W/m² | - |
| 1777895430 | 3.89° C | 89% | 1014.2 hPa | 0 mm | - | 35 W/m² | - |
| 1777895124 | 3.89° C | 90% | 1014.2 hPa | 0 mm | - | 33 W/m² | - |
| 1777894835 | 3.89° C | 90% | 1014.1 hPa | 0 mm | - | 30 W/m² | - |
* Rain latest hour (hover to see other rain measurements)
** Current wind speed in m/s (hover to see current wind gust speed)